Location: Burzi?i
(45.0869°N, 16.0577°E)
Time: 11:47:30
(UTC+00:00)

H-2A R/B - Pass Details

Date: 29 October 2020
Orbit: 528 x 653 km, 98.3° (Epoch: 27 November)

Event Time Altitude Azimuth Distance (km) Brightness Sun altitude
Rises 16:21:07 0° 184° (S) 2,924 6.2 -6.5°
Reaches altitude 10° 16:23:24 10° 191° (S) 2,033 5.5 -6.9°
Maximum altitude 16:27:36 40° 261° (W) 954 4.3 -7.6°
Drops below altitude 10° 16:31:53 10° 332° (NNW) 2,070 5.5 -8.4°
Sets 16:34:14 0° 340° (NNW) 2,985 6.2 -8.8°
